Hourly Weather Inhambane

Today, 1 October, Thursday

Time Temperature Precipitation Wind Pressure Humidity
00:00 +24°C° 0 mm 0 mps 717 mmHg 46%
01:00 +26°C° 0 mm 1 mps 717 mmHg 48%
02:00 +25°C° 0 mm 1 mps 716 mmHg 50%
03:00 +25°C° 0 mm 1 mps 717 mmHg 47%
04:00 +25°C° 0 mm 1 mps 717 mmHg 44%
05:00 +25°C° 0 mm 2 mps 717 mmHg 41%
06:00 +28°C° 0 mm 2 mps 718 mmHg 35%
07:00 +31°C° 0 mm 1 mps 719 mmHg 28%
08:00 +34°C° 0 mm 1 mps 719 mmHg 20%
09:00 +37°C° 0 mm 2 mps 719 mmHg 17%
10:00 +39°C° 0 mm 3 mps 719 mmHg 14%
11:00 +42°C° 0 mm 4 mps 720 mmHg 11%
12:00 +42°C° 0 mm 4 mps 719 mmHg 13%
13:00 +42°C° 0 mm 5 mps 718 mmHg 14%
14:00 +42°C° 0 mm 5 mps 717 mmHg 15%
15:00 +40°C° 0 mm 5 mps 717 mmHg 19%
16:00 +37°C° 0 mm 4 mps 717 mmHg 23%
17:00 +36°C° 0 mm 4 mps 717 mmHg 27%
18:00 +34°C° 0 mm 3 mps 718 mmHg 35%
19:00 +30°C° 0 mm 3 mps 718 mmHg 44%
20:00 +28°C° 0 mm 2 mps 718 mmHg 53%
21:00 +28°C° 0 mm 2 mps 718 mmHg 57%
22:00 +27°C° 0 mm 2 mps 718 mmHg 61%
23:00 +26°C° 0 mm 1 mps 718 mmHg 65%

Tomorrow, 2 October, Friday

Time Temperature Precipitation Wind Pressure Humidity
00:00 +26°C° 0 mm 1 mps 718 mmHg 64%
01:00 +26°C° 0 mm 2 mps 718 mmHg 63%
02:00 +26°C° 0 mm 2 mps 718 mmHg 61%
03:00 +26°C° 0 mm 2 mps 718 mmHg 58%
04:00 +25°C° 0 mm 2 mps 719 mmHg 55%
05:00 +25°C° 0 mm 2 mps 719 mmHg 52%
06:00 +28°C° 0 mm 2 mps 720 mmHg 43%
07:00 +30°C° 0 mm 2 mps 720 mmHg 35%
08:00 +34°C° 0 mm 2 mps 721 mmHg 26%
09:00 +36°C° 0 mm 3 mps 721 mmHg 22%
10:00 +38°C° 0 mm 4 mps 721 mmHg 18%
11:00 +41°C° 0 mm 4 mps 721 mmHg 13%
12:00 +42°C° 0 mm 5 mps 721 mmHg 14%
13:00 +42°C° 0 mm 5 mps 720 mmHg 15%
14:00 +42°C° 0 mm 6 mps 720 mmHg 15%
15:00 +41°C° 0 mm 5 mps 720 mmHg 20%
16:00 +39°C° 0 mm 5 mps 720 mmHg 24%
17:00 +36°C° 0 mm 4 mps 719 mmHg 29%
18:00 +34°C° 0 mm 3 mps 720 mmHg 36%
19:00 +30°C° 0 mm 2 mps 720 mmHg 44%
20:00 +28°C° 0 mm 2 mps 720 mmHg 52%
21:00 +28°C° 0 mm 1 mps 720 mmHg 50%
22:00 +27°C° 0 mm 1 mps 720 mmHg 48%
23:00 +27°C° 0 mm 1 mps 720 mmHg 46%

Day after tomorrow, 3 October, Saturday

Time Temperature Precipitation Wind Pressure Humidity
00:00 +27°C° 0 mm 1 mps 720 mmHg 44%
01:00 +26°C° 0 mm 1 mps 719 mmHg 42%
02:00 +26°C° 0 mm 1 mps 719 mmHg 40%
03:00 +26°C° 0 mm 1 mps 719 mmHg 39%
04:00 +26°C° 0 mm 1 mps 719 mmHg 38%
05:00 +25°C° 0 mm 1 mps 720 mmHg 37%
06:00 +28°C° 0 mm 2 mps 720 mmHg 32%
07:00 +31°C° 0 mm 2 mps 721 mmHg 27%
08:00 +35°C° 0 mm 2 mps 722 mmHg 22%
09:00 +37°C° 0 mm 4 mps 722 mmHg 18%
10:00 +41°C° 0 mm 5 mps 722 mmHg 14%
11:00 +44°C° 0 mm 6 mps 722 mmHg 11%
12:00 +44°C° 0 mm 6 mps 721 mmHg 12%
13:00 +44°C° 0 mm 7 mps 721 mmHg 12%
14:00 +44°C° 0 mm 7 mps 720 mmHg 13%
15:00 +41°C° 0 mm 6 mps 720 mmHg 16%
16:00 +40°C° 0 mm 5 mps 720 mmHg 20%
17:00 +37°C° 0 mm 5 mps 720 mmHg 23%
18:00 +34°C° 0 mm 3 mps 720 mmHg 29%
19:00 +31°C° 0 mm 2 mps 720 mmHg 36%
20:00 +28°C° 0 mm 1 mps 720 mmHg 42%
21:00 +28°C° 0 mm 1 mps 720 mmHg 43%
22:00 +27°C° 0 mm 1 mps 720 mmHg 43%
23:00 +27°C° 0 mm 1 mps 720 mmHg 43%

4 October, Sunday

Time Temperature Precipitation Wind Pressure Humidity
00:00 +26°C° 0 mm 1 mps 720 mmHg 44%
01:00 +26°C° 0 mm 1 mps 720 mmHg 46%
02:00 +25°C° 0 mm 1 mps 720 mmHg 48%
03:00 +25°C° 0 mm 1 mps 720 mmHg 46%
04:00 +25°C° 0 mm 1 mps 720 mmHg 45%
05:00 +25°C° 0 mm 1 mps 720 mmHg 44%
06:00 +27°C° 0 mm 1 mps 721 mmHg 38%
07:00 +30°C° 0 mm 2 mps 721 mmHg 32%
08:00 +34°C° 0 mm 2 mps 722 mmHg 26%
09:00 +36°C° 0 mm 3 mps 722 mmHg 22%
10:00 +38°C° 0 mm 4 mps 722 mmHg 18%
11:00 +41°C° 0 mm 4 mps 722 mmHg 15%
12:00 +41°C° 0 mm 4 mps 721 mmHg 15%
13:00 +41°C° 0 mm 5 mps 721 mmHg 16%
14:00 +42°C° 0 mm 5 mps 720 mmHg 17%
15:00 +40°C° 0 mm 4 mps 720 mmHg 22%
16:00 +37°C° 0 mm 4 mps 720 mmHg 27%
17:00 +35°C° 0 mm 4 mps 720 mmHg 32%
18:00 +31°C° 0 mm 3 mps 720 mmHg 41%
19:00 +29°C° 0 mm 3 mps 720 mmHg 50%
20:00 +27°C° 0 mm 2 mps 721 mmHg 59%
21:00 +26°C° 0 mm 2 mps 720 mmHg 60%
22:00 +26°C° 0 mm 1 mps 720 mmHg 62%
23:00 +25°C° 0 mm 1 mps 720 mmHg 63%

5 October, Monday

Time Temperature Precipitation Wind Pressure Humidity
00:00 +25°C° 0 mm 1 mps 720 mmHg 62%
01:00 +25°C° 0 mm 1 mps 720 mmHg 62%
02:00 +24°C° 0 mm 1 mps 720 mmHg 61%
03:00 +24°C° 0 mm 1 mps 720 mmHg 61%
04:00 +24°C° 0 mm 1 mps 720 mmHg 61%
05:00 +23°C° 0 mm 1 mps 720 mmHg 60%
06:00 +26°C° 0 mm 1 mps 720 mmHg 51%
07:00 +28°C° 0 mm 2 mps 721 mmHg 42%
08:00 +30°C° 0 mm 2 mps 722 mmHg 32%
09:00 +32°C° 0 mm 2 mps 722 mmHg 27%
10:00 +36°C° 0 mm 3 mps 722 mmHg 22%
11:00 +38°C° 0 mm 4 mps 722 mmHg 17%
12:00 +38°C° 0 mm 4 mps 721 mmHg 20%
13:00 +38°C° 0 mm 4 mps 720 mmHg 24%
14:00 +38°C° 0 mm 4 mps 720 mmHg 27%
15:00 +36°C° 0 mm 4 mps 719 mmHg 35%
16:00 +34°C° 0 mm 4 mps 719 mmHg 42%
17:00 +32°C° 0 mm 4 mps 719 mmHg 50%
18:00 +29°C° 0 mm 3 mps 719 mmHg 56%
19:00 +28°C° 0 mm 2 mps 719 mmHg 63%
20:00 +26°C° 0 mm 1 mps 720 mmHg 69%
21:00 +26°C° 0 mm 1 mps 720 mmHg 70%
22:00 +25°C° 0 mm 1 mps 720 mmHg 72%
23:00 +22°C° 0 mm 0 mps 720 mmHg 73%

6 October, Tuesday

Time Temperature Precipitation Wind Pressure Humidity
00:00 +22°C° 0 mm 0 mps 719 mmHg 75%
01:00 +22°C° 0 mm 0 mps 719 mmHg 76%
02:00 +21°C° 0 mm 0 mps 719 mmHg 78%
03:00 +21°C° 0 mm 0 mps 719 mmHg 76%
04:00 +21°C° 0 mm 0 mps 719 mmHg 74%
05:00 +21°C° 0 mm 0 mps 719 mmHg 73%
06:00 +23°C° 0 mm 0 mps 719 mmHg 61%
07:00 +26°C° 0 mm 0 mps 720 mmHg 49%
08:00 +30°C° 0 mm 1 mps 720 mmHg 38%
09:00 +33°C° 0 mm 1 mps 720 mmHg 32%
10:00 +36°C° 0 mm 2 mps 720 mmHg 27%
11:00 +38°C° 0 mm 3 mps 720 mmHg 21%
12:00 +38°C° 0 mm 4 mps 720 mmHg 22%
13:00 +40°C° 0 mm 5 mps 719 mmHg 23%
14:00 +40°C° 0 mm 6 mps 718 mmHg 24%
15:00 +37°C° 0 mm 5 mps 718 mmHg 31%
16:00 +34°C° 0 mm 4 mps 718 mmHg 38%
17:00 +31°C° 0 mm 3 mps 718 mmHg 45%
18:00 +29°C° 0 mm 3 mps 718 mmHg 51%
19:00 +28°C° 0 mm 2 mps 718 mmHg 58%
20:00 +26°C° 0 mm 1 mps 719 mmHg 65%
21:00 +25°C° 0 mm 1 mps 719 mmHg 65%
22:00 +23°C° 0 mm 0 mps 719 mmHg 65%
23:00 +23°C° 0 mm 0 mps 719 mmHg 65%
Show more

We Need Your Consent

Meteoprog and our Service Providers may store and access personal data such as cookies, device identifiers or other similar technologies on your device and process such data to personalise content and ads, as well as provide social media features and to analyse the traffic.

  • Store and/or access information on your device

    Cookies, device identifiers or other information can be stored or accessed on your device for the purposes indicated above.

  • Personalised ads and content, ad and content measurement, audience insights, and products development

    Ads and content can be personalised based on a profile. More data can be added to better personalise ads and content. Ad and content performance can be measured. Insights about the audience who saw the ads and content can be derived. Such data can be used to develop or improve user’s experience, systems and software.

By clicking ‘I Agree’ you will allow the use of indicated cookies, device identifiers, web beacons or other similar technologies. Your settings can be changed in the browser on your device.

For certain purposes, legitimate interests may be relied on, rather than consent. You can read more about this in our Privacy and Cookie Policy.